| time (UTC) | temp C | wind direction | speed KPH | gust KPH | rain 1hr cm | rain 24hr cm | rain mn cm | humidity % | barometer mb |
| 20260508234216 | 18 | 180 | 6.4 | 11.3 | 0.00 | 0.00 | 0.00 | 45 | 1004.5 |
| 20260508233216 | 18 | 225 | 4.8 | 6.4 | 0.00 | 0.00 | 0.00 | 43 | 1004.5 |
| 20260508232216 | 19 | 225 | 8.0 | 9.7 | 0.00 | 0.00 | 0.00 | 42 | 1004.5 |
| 20260508231216 | 20 | 203 | 3.2 | 6.4 | 0.00 | 0.00 | 0.00 | 41 | 1004.5 |
| 20260508230216 | 19 | 203 | 11.3 | 16.1 | 0.00 | 0.00 | 0.00 | 42 | 1004.7 |
| 20260508225216 | 20 | 203 | 8.0 | 11.3 | 0.00 | 0.00 | 0.00 | 41 | 1004.6 |
| 20260508224236 | 20 | 225 | 6.4 | 8.0 | 0.00 | 0.00 | 0.00 | 42 | 1004.6 |
| 20260508223216 | 20 | 113 | 4.8 | 9.7 | 0.00 | 0.00 | 0.00 | 43 | 1004.6 |
| 20260508222216 | 19 | 158 | 3.2 | 4.8 | 0.00 | 0.00 | 0.00 | 44 | 1004.7 |
| 20260508221216 | 20 | 180 | 6.4 | 8.0 | 0.00 | 0.00 | 0.00 | 44 | 1004.9 |
| 20260508220236 | 20 | 225 | 8.0 | 12.9 | 0.00 | 0.00 | 0.00 | 43 | 1005.0 |
| 20260508215216 | 20 | 248 | 8.0 | 11.3 | 0.00 | 0.10 | 0.00 | 41 | 1005.0 |
| 20260508214216 | 20 | 180 | 6.4 | 9.7 | 0.00 | 0.10 | 0.00 | 41 | 1005.0 |
| 20260508213216 | 18 | 225 | 8.0 | 11.3 | 0.00 | 0.10 | 0.00 | 44 | 1005.1 |
| 20260508212216 | 18 | 203 | 8.0 | 8.0 | 0.00 | 0.10 | 0.00 | 43 | 1005.1 |
| 20260508211216 | 19 | 248 | 6.4 | 11.3 | 0.00 | 0.10 | 0.00 | 42 | 1005.3 |
| 20260508210216 | 19 | 270 | 4.8 | 6.4 | 0.00 | 0.10 | 0.00 | 40 | 1005.2 |
| 20260508205216 | 20 | 293 | 1.6 | 3.2 | 0.00 | 0.13 | 0.00 | 40 | 1005.3 |
| 20260508204216 | 20 | 248 | 3.2 | 6.4 | 0.00 | 0.13 | 0.00 | 41 | 1005.5 |
| 20260508203216 | 20 | 180 | 9.7 | 16.1 | 0.00 | 0.13 | 0.00 | 40 | 1005.7 |
| 20260508202215 | 20 | 135 | 8.0 | 11.3 | 0.00 | 0.13 | 0.00 | 42 | 1005.9 |
| 20260508201218 | 20 | 158 | 9.7 | 12.9 | 0.00 | 0.13 | 0.00 | 42 | 1005.9 |
| 20260508200218 | 19 | 225 | 9.7 | 14.5 | 0.00 | 0.13 | 0.00 | 42 | 1006.2 |
| 20260508195218 | 20 | 203 | 8.0 | 11.3 | 0.00 | 0.13 | 0.00 | 40 | 1006.3 |
| 20260508194217 | 20 | 270 | 1.6 | 3.2 | 0.00 | 0.13 | 0.00 | 36 | 1006.4 |
| 20260508193238 | 20 | 225 | 4.8 | 6.4 | 0.00 | 0.13 | 0.00 | 40 | 1006.5 |
| 20260508192218 | 20 | 203 | 11.3 | 12.9 | 0.00 | 0.13 | 0.00 | 40 | 1006.7 |
| 20260508191217 | 20 | 225 | 3.2 | 6.4 | 0.00 | 0.13 | 0.00 | 39 | 1006.7 |
| 20260508190238 | 20 | 248 | 1.6 | 3.2 | 0.00 | 0.13 | 0.00 | 37 | 1006.9 |
| 20260508185238 | 19 | 248 | 1.6 | 6.4 | 0.00 | 0.13 | 0.00 | 41 | 1006.9 |
| 20260508184216 | 19 | 113 | 3.2 | 6.4 | 0.00 | 0.13 | 0.00 | 39 | 1007.1 |
| 20260508183218 | 19 | 203 | 3.2 | 6.4 | 0.00 | 0.13 | 0.00 | 41 | 1007.4 |
| 20260508182217 | 18 | 203 | 9.7 | 14.5 | 0.00 | 0.13 | 0.00 | 44 | 1007.4 |
| 20260508181218 | 18 | 90 | 9.7 | 14.5 | 0.00 | 0.13 | 0.00 | 45 | 1007.5 |
| 20260508180217 | 18 | 90 | 6.4 | 12.9 | 0.00 | 0.13 | 0.00 | 45 | 1007.6 |
| 20260508175238 | 19 | 113 | 4.8 | 9.7 | 0.00 | 0.13 | 0.00 | 43 | 1007.7 |
| 20260508174218 | 19 | 90 | 4.8 | 9.7 | 0.00 | 0.13 | 0.00 | 44 | 1008.0 |
| 20260508173238 | 18 | 180 | 8.0 | 9.7 | 0.00 | 0.13 | 0.00 | 44 | 1008.1 |
| 20260508172217 | 18 | 68 | 3.2 | 8.0 | 0.00 | 0.13 | 0.00 | 41 | 1008.3 |
| 20260508171217 | 18 | 135 | 1.6 | 3.2 | 0.00 | 0.13 | 0.00 | 37 | 1008.5 |
| 20260508170217 | 18 | 180 | 8.0 | 12.9 | 0.00 | 0.13 | 0.00 | 38 | 1008.7 |
| 20260508165218 | 18 | 248 | 3.2 | 4.8 | 0.00 | 0.13 | 0.00 | 38 | 1008.7 |
| 20260508164258 | 18 | 90 | 6.4 | 9.7 | 0.00 | 0.13 | 0.00 | 37 | 1008.9 |
| 20260508163237 | 18 | 135 | 8.0 | 11.3 | 0.00 | 0.13 | 0.00 | 38 | 1009.1 |
| 20260508162238 | 17 | 90 | 3.2 | 4.8 | 0.00 | 0.13 | 0.00 | 43 | 1009.3 |
| 20260508161238 | 17 | 113 | 9.7 | 14.5 | 0.00 | 0.13 | 0.00 | 40 | 1009.4 |
| 20260508160217 | 17 | 90 | 8.0 | 9.7 | 0.00 | 0.13 | 0.00 | 43 | 1009.3 |
| 20260508155217 | 17 | 113 | 3.2 | 6.4 | 0.00 | 0.13 | 0.00 | 46 | 1009.4 |
| 20260508154217 | 16 | 203 | 3.2 | 6.4 | 0.00 | 0.13 | 0.00 | 43 | 1009.5 |
| 20260508153217 | 16 | 45 | 1.6 | 4.8 | 0.00 | 0.13 | 0.00 | 46 | 1009.6 |
| 20260508152217 | 16 | 90 | 4.8 | 11.3 | 0.00 | 0.13 | 0.00 | 51 | 1009.7 |
| 20260508151257 | 15 | 90 | 8.0 | 12.9 | 0.00 | 0.13 | 0.00 | 55 | 1009.7 |
| 20260508150218 | 15 | 113 | 1.6 | 3.2 | 0.00 | 0.13 | 0.00 | 58 | 1009.8 |
| 20260508145217 | 14 | 113 | 4.8 | 9.7 | 0.00 | 0.13 | 0.00 | 62 | 1009.9 |
| 20260508144218 | 13 | 45 | 4.8 | 6.4 | 0.00 | 0.13 | 0.00 | 65 | 1010.0 |
| 20260508143217 | 13 | 90 | 6.4 | 9.7 | 0.00 | 0.13 | 0.00 | 69 | 1010.0 |
| 20260508142217 | 12 | 113 | 3.2 | 4.8 | 0.00 | 0.13 | 0.00 | 72 | 1010.2 |
| 20260508141217 | 12 | 135 | 1.6 | 3.2 | 0.00 | 0.13 | 0.00 | 73 | 1010.2 |
| 20260508140238 | 11 | 135 | 3.2 | 6.4 | 0.00 | 0.13 | 0.00 | 74 | 1010.2 |
| 20260508135217 | 11 | 135 | 3.2 | 4.8 | 0.00 | 0.13 | 0.00 | 77 | 1010.1 |
| 20260508134217 | 11 | 135 | 6.4 | 9.7 | 0.00 | 0.13 | 0.00 | 81 | 1010.1 |
| 20260508133238 | 10 | 90 | 4.8 | 6.4 | 0.00 | 0.13 | 0.00 | 84 | 1010.0 |
| 20260508132237 | 9 | 68 | 4.8 | 9.7 | 0.00 | 0.13 | 0.00 | 87 | 1010.0 |
| 20260508131217 | 8 | 113 | 3.2 | 4.8 | 0.00 | 0.13 | 0.00 | 89 | 1010.0 |
| 20260508130217 | 8 | 90 | 8.0 | 12.9 | 0.00 | 0.13 | 0.00 | 91 | 1010.1 |
| 20260508125217 | 7 | 68 | 3.2 | 4.8 | 0.00 | 0.13 | 0.00 | 91 | 1010.0 |
| 20260508124217 | 7 | 90 | 6.4 | 11.3 | 0.00 | 0.13 | 0.00 | 92 | 1010.0 |
| 20260508123217 | 6 | 90 | 4.8 | 6.4 | 0.00 | 0.13 | 0.00 | 92 | 1010.2 |
| 20260508122217 | 6 | 113 | 4.8 | 6.4 | 0.00 | 0.13 | 0.00 | 92 | 1010.2 |
| 20260508121217 | 5 | 90 | 4.8 | 4.8 | 0.00 | 0.13 | 0.00 | 92 | 1010.0 |
| 20260508120237 | 5 | 90 | 3.2 | 4.8 | 0.00 | 0.13 | 0.00 | 92 | 1010.1 |
| 20260508115217 | 5 | 68 | 3.2 | 3.2 | 0.00 | 0.13 | 0.00 | 91 | 1010.0 |
| 20260508114217 | 4 | 90 | 3.2 | 3.2 | 0.00 | 0.13 | 0.00 | 91 | 1010.0 |
| 20260508113237 | 3 | 0 | 1.6 | 3.2 | 0.00 | 0.13 | 0.00 | 91 | 1009.9 |
| 20260508112217 | 3 | 0 | 1.6 | 1.6 | 0.00 | 0.13 | 0.00 | 91 | 1009.9 |
| 20260508111217 | 3 | 0.0 | 0.0 | 0.00 | 0.13 | 0.00 | 91 | 1009.7 | |
| 20260508110217 | 3 | 0.0 | 0.0 | 0.00 | 0.13 | 0.00 | 90 | 1009.6 | |
| 20260508105216 | 3 | 0.0 | 1.6 | 0.00 | 0.13 | 0.00 | 90 | 1009.6 | |
| 20260508104217 | 2 | 0.0 | 0.0 | 0.00 | 0.13 | 0.00 | 90 | 1009.5 | |
| 20260508103237 | 2 | 0.0 | 0.0 | 0.00 | 0.13 | 0.00 | 90 | 1009.4 | |
| 20260508102217 | 2 | 0.0 | 0.0 | 0.00 | 0.13 | 0.00 | 89 | 1009.4 | |
| 20260508101237 | 3 | 0.0 | 1.6 | 0.00 | 0.13 | 0.00 | 89 | 1009.4 | |
| 20260508100237 | 3 | 0 | 1.6 | 3.2 | 0.00 | 0.13 | 0.00 | 89 | 1009.4 |
| 20260508095216 | 3 | 338 | 1.6 | 1.6 | 0.00 | 0.13 | 0.00 | 89 | 1009.5 |
| 20260508094217 | 3 | 0.0 | 0.0 | 0.00 | 0.13 | 0.00 | 89 | 1009.6 | |
| 20260508093217 | 3 | 0.0 | 1.6 | 0.00 | 0.13 | 0.00 | 89 | 1009.6 | |
| 20260508092237 | 3 | 0.0 | 0.0 | 0.00 | 0.13 | 0.00 | 89 | 1009.5 | |
| 20260508091217 | 3 | 0.0 | 0.0 | 0.00 | 0.13 | 0.00 | 88 | 1009.8 | |
| 20260508090216 | 3 | 0.0 | 0.0 | 0.00 | 0.13 | 0.00 | 88 | 1009.8 | |
| 20260508085237 | 3 | 0.0 | 0.0 | 0.00 | 0.13 | 0.00 | 88 | 1009.9 | |
| 20260508084216 | 3 | 0.0 | 0.0 | 0.00 | 0.13 | 0.00 | 88 | 1010.0 | |
| 20260508083216 | 3 | 0.0 | 0.0 | 0.00 | 0.13 | 0.00 | 88 | 1010.1 | |
| 20260508082216 | 3 | 0.0 | 0.0 | 0.00 | 0.13 | 0.00 | 88 | 1010.1 | |
| 20260508081216 | 3 | 0.0 | 0.0 | 0.00 | 0.13 | 0.00 | 88 | 1010.2 | |
| 20260508080216 | 4 | 0.0 | 0.0 | 0.00 | 0.13 | 0.00 | 88 | 1010.2 | |
| 20260508075216 | 4 | 0.0 | 0.0 | 0.00 | 0.13 | 0.00 | 88 | 1010.3 | |
| 20260508074216 | 4 | 0.0 | 0.0 | 0.00 | 0.13 | 0.00 | 88 | 1010.4 | |
| 20260508073216 | 4 | 0.0 | 0.0 | 0.00 | 0.13 | 0.00 | 87 | 1010.5 | |
| 20260508072217 | 4 | 338 | 1.6 | 4.8 | 0.00 | 0.13 | 0.00 | 87 | 1010.5 |
| 20260508071216 | 5 | 0.0 | 1.6 | 0.00 | 0.13 | 0.00 | 87 | 1010.6 | |
| 20260508070216 | 5 | 0.0 | 1.6 | 0.00 | 0.13 | 0.00 | 86 | 1010.7 | |
| 20260508065216 | 4 | 0.0 | 0.0 | 0.00 | 0.13 | 0.00 | 86 | 1010.7 | |
| 20260508064216 | 4 | 315 | 3.2 | 3.2 | 0.00 | 0.13 | 0.00 | 85 | 1010.5 |
| 20260508063236 | 5 | 0.0 | 0.0 | 0.00 | 0.13 | 0.00 | 85 | 1010.5 | |
| 20260508062216 | 5 | 0.0 | 0.0 | 0.00 | 0.13 | 0.00 | 85 | 1010.6 | |
| 20260508061236 | 5 | 0.0 | 0.0 | 0.00 | 0.13 | 0.00 | 84 | 1010.6 | |
| 20260508060216 | 5 | 0.0 | 0.0 | 0.00 | 0.13 | 0.00 | 84 | 1010.6 | |
| 20260508055216 | 5 | 0.0 | 0.0 | 0.00 | 0.13 | 0.00 | 83 | 1010.4 | |
| 20260508054216 | 5 | 0.0 | 0.0 | 0.00 | 0.13 | 0.00 | 83 | 1010.5 | |
| 20260508053236 | 5 | 0.0 | 0.0 | 0.00 | 0.13 | 0.00 | 82 | 1010.4 | |
| 20260508052216 | 5 | 0.0 | 0.0 | 0.00 | 0.13 | 0.00 | 82 | 1010.4 | |
| 20260508051217 | 6 | 0.0 | 0.0 | 0.00 | 0.13 | 0.00 | 81 | 1010.2 | |
| 20260508050216 | 6 | 189 | 1.6 | 0.0 | 0.00 | 0.13 | 0.00 | 80 | 1010.2 |
| 20260508045217 | 6 | 0.0 | 0.0 | 0.00 | 0.13 | 0.13 | 80 | 1010.2 | |
| 20260508044216 | 6 | 0.0 | 1.6 | 0.00 | 0.13 | 0.13 | 79 | 1010.1 | |
| 20260508043217 | 6 | 0.0 | 0.0 | 0.00 | 0.13 | 0.13 | 78 | 1010.0 | |
| 20260508042217 | 7 | 0.0 | 0.0 | 0.00 | 0.13 | 0.13 | 78 | 1009.9 | |
| 20260508041237 | 7 | 0.0 | 1.6 | 0.00 | 0.13 | 0.13 | 77 | 1009.9 | |
| 20260508040217 | 7 | 0.0 | 0.0 | 0.00 | 0.13 | 0.13 | 76 | 1009.8 | |
| 20260508035217 | 7 | 0.0 | 0.0 | 0.00 | 0.13 | 0.13 | 76 | 1009.8 | |
| 20260508034217 | 7 | 293 | 3.2 | 4.8 | 0.00 | 0.13 | 0.13 | 74 | 1009.7 |
| 20260508033217 | 7 | 0.0 | 0.0 | 0.00 | 0.13 | 0.13 | 73 | 1009.6 | |
| 20260508032217 | 8 | 158 | 1.6 | 3.2 | 0.00 | 0.13 | 0.13 | 72 | 1009.6 |
| 20260508031217 | 8 | 0.0 | 0.0 | 0.00 | 0.13 | 0.13 | 72 | 1009.6 | |
| 20260508030217 | 8 | 68 | 1.6 | 3.2 | 0.00 | 0.13 | 0.13 | 71 | 1009.5 |
| 20260508025217 | 8 | 0.0 | 1.6 | 0.00 | 0.13 | 0.13 | 71 | 1009.5 | |
| 20260508024216 | 8 | 68 | 1.6 | 3.2 | 0.00 | 0.13 | 0.13 | 69 | 1009.4 |
| 20260508023217 | 9 | 68 | 3.2 | 3.2 | 0.00 | 0.13 | 0.13 | 68 | 1009.2 |
| 20260508022216 | 9 | 0.0 | 1.6 | 0.00 | 0.13 | 0.13 | 68 | 1009.2 | |
| 20260508021237 | 10 | 90 | 1.6 | 1.6 | 0.00 | 0.13 | 0.13 | 65 | 1009.0 |
| 20260508020217 | 10 | 0.0 | 3.2 | 0.00 | 0.13 | 0.13 | 64 | 1008.9 | |
| 20260508015217 | 11 | 180 | 1.6 | 1.6 | 0.00 | 0.13 | 0.13 | 63 | 1008.9 |
| 20260508014216 | 11 | 0.0 | 0.0 | 0.00 | 0.13 | 0.13 | 60 | 1008.6 | |
| 20260508013216 | 12 | 0.0 | 1.6 | 0.00 | 0.13 | 0.13 | 58 | 1008.5 | |
| 20260508012217 | 12 | 0.0 | 0.0 | 0.00 | 0.13 | 0.13 | 57 | 1008.5 | |
| 20260508011216 | 12 | 180 | 1.6 | 1.6 | 0.00 | 0.13 | 0.13 | 54 | 1008.3 |
| 20260508010237 | 13 | 0.0 | 0.0 | 0.00 | 0.13 | 0.13 | 52 | 1008.3 | |
| 20260508005217 | 13 | 203 | 1.6 | 1.6 | 0.00 | 0.13 | 0.13 | 51 | 1008.2 |
| 20260508004217 | 13 | 225 | 3.2 | 4.8 | 0.00 | 0.13 | 0.13 | 50 | 1008.1 |
| 20260508003216 | 14 | 248 | 4.8 | 6.4 | 0.00 | 0.13 | 0.13 | 49 | 1008.1 |
| 20260508002217 | 14 | 270 | 6.4 | 11.3 | 0.00 | 0.13 | 0.13 | 48 | 1008.2 |
| 20260508001216 | 15 | 270 | 9.7 | 16.1 | 0.00 | 0.13 | 0.13 | 47 | 1008.0 |
| 20260508000216 | 15 | 270 | 12.9 | 17.7 | 0.00 | 0.13 | 0.13 | 47 | 1007.9 |
| 20260507235216 | 15 | 225 | 12.9 | 17.7 | 0.00 | 0.13 | 0.13 | 47 | 1007.9 |